Flag Weather past 2 weeks in Cancún, Quintana Roo, Mexico

Now
73 °F

Scattered clouds.


Feels Like: 76 °F
Forecast: 72 / 77 °F
Wind: 7 mph from Northeast

Location: Cancun International Airport

Current Time: Nov 27, 2014 at 8:41:03 AM

Latest Report: Nov 27, 2014 at 7:51 AM


Visibility: 7 mi

Pressure: 30.22 "Hg

Humidity: 61%

Dew point: 59 °F

Location of CancúnLocation

Historic Weather in Cancún — Graph

°F

Cancún temperature yesterday

Maximum temperature yesterday: 75 °F (at 12:44 PM)
Minimum temperature yesterday: 72 °F (at 3:49 AM)
Average temperature yesterday: 73 °F

Past Weeks' High & Low Weather Summary

 TemperatureHumidityPressure
High88 °F (Nov 25, 11:46 AM)100% (Nov 14, 1:45 AM)30.22 "Hg (Nov 14, 1:45 AM)
Low61 °F (Nov 14, 4:41 AM)58% (Nov 12, 10:48 AM)29.81 "Hg (Nov 23, 5:40 PM)
Average76 °F83%30.01 "Hg
* Reported Nov 12 10:48 AM — Nov 27 7:51 AM, Cancún, Weather by CustomWeather, © 2014

Note: Actual official high and low records may vary slightly from our data, if they occured in-between our weather recording intervals... More about our weather records

Advertising

Cancún weather history for previous 24 hours

 ConditionsComfort  
Time TempWeatherWind HumidityBarometerVisibility
7:51 AM
Nov 27
73 °FScattered clouds.7 mph61%30.22 "Hg7 mi
5:45 AM72 °FPartly cloudy.7 mph65%30.16 "Hg7 mi
4:47 AM73 °FMostly cloudy.6 mph61%30.17 "Hg6 mi
3:45 AM73 °FPassing clouds.8 mph61%30.16 "Hg6 mi
2:48 AM73 °FPassing clouds.7 mph61%30.13 "Hg6 mi
1:45 AM72 °FPassing clouds.6 mph65%30.16 "Hg6 mi
11:46 PM
Nov 26
72 °FPassing clouds.6 mph65%30.15 "Hg6 mi
10:54 PM72 °FPassing clouds.5 mph65%30.18 "Hg6 mi
9:43 PM73 °FPassing clouds.6 mph65%30.17 "Hg6 mi
8:42 PM72 °FPassing clouds.2 mph69%30.12 "Hg6 mi
7:46 PM72 °FPassing clouds.3 mph65%30.16 "Hg6 mi
5:41 PM73 °FPartly cloudy.10 mph61%30.10 "Hg6 mi
4:45 PM73 °FCloudy.10 mph65%30.12 "Hg6 mi
3:49 PM75 °FCloudy.8 mph65%30.11 "Hg6 mi
2:43 PM75 °FCloudy.6 mph65%30.08 "Hg6 mi
1:51 PM75 °FBroken clouds.8 mph65%30.11 "Hg7 mi
12:44 PM75 °FBroken clouds.13 mph65%30.11 "Hg6 mi
Weather by CustomWeather, © 2014

See weather overviewHow to use our weather pages